Tracking 25612 objects as of 19-May-2022
HD Live streaming from Space Station
objects crossing your sky now

COSMOS 1382 DEB

Track COSMOS 1382 DEB now!


NORAD ID: 27903
Int'l Code: 1982-064E
Perigee: 3,586.3 km
Apogee: 37,584.8 km
Inclination: 68.3 °
Period: 734.1 minutes
Semi major axis: 26956 km
RCS: 0.3202 m2 (medium)
Launch date: June 25, 1982
Source: Commonwealth of Independent States (former USSR) (CIS)
Launch site: PLESETSK MISSILE AND SPACE COMPLEX (PKMTR)

Note: This is SATELLITE DEBRIS
aabbcc
Your satellite tracking list
Your tracking list is empty




NASA's NSSDC Master Catalog

Two Line Element Set (TLE):
1 27903U 82064E   22138.39931302 -.00000470  00000-0  00000-0 0  9999
2 27903  68.3239  11.8590 6306164  14.3515 357.6648  1.96158182141661
Source of the keplerian elements: AFSPC